Temperature
7 8 9 9 9 9 9 9 9 9 9 9 9 9 10 9 8 8 8 8 7 7 7 7 7 8 8 8 9 9 10 10 10 11 11 11 11 11 12 12 12 12 12 12
8 8 8 8 8 8 8 8 9 9 9 9 9 9 10 9 9 8 8 7 7 7 7 7 7 7 8 8 8 9 9 9 10 10 10 10 11 11 11 11 11 12 12 12
8 8 8 8 8 8 8 8 9 8 9 9 9 10 10 10 9 8 8 7 7 7 7 7 7 7 7 8 8 8 8 9 9 9 10 10 10 10 10 11 11 11 11 11
7 7 7 8 8 8 8 9 8 8 8 9 9 10 11 10 10 9 8 7 7 6 6 6 6 6 7 7 7 8 8 8 9 9 9 9 9 10 10 10 11 11 11 11
7 7 7 8 8 8 8 8 8 8 8 8 9 9 11 10 9 9 8 7 7 6 6 6 6 6 6 7 7 7 8 8 8 8 9 9 9 9 10 10 10 11 11 11
7 7 7 8 8 8 7 7 7 7 8 9 9 9 11 10 9 8 8 7 6 6 6 6 5 6 6 6 6 7 7 7 8 8 8 9 9 9 9 9 10 10 10 10
7 7 7 7 7 8 7 8 9 9 9 10 9 9 10 10 8 8 7 7 6 6 5 5 5 5 5 6 6 6 7 7 7 7 8 8 8 8 9 9 9 10 10 10
7 8 7 7 8 7 7 8 9 10 11 11 9 9 11 9 8 7 6 6 6 5 5 5 5 5 5 5 5 6 6 6 7 7 7 8 8 8 8 8 9 9 9 9
8 7 7 7 7 7 7 8 7 8 8 9 10 10 10 8 8 7 7 6 5 5 5 4 4 4 4 5 5 5 6 6 6 6 7 7 8 8 8 8 8 8 8 8
7 7 7 7 7 7 7 7 7 8 9 10 11 11 10 9 8 7 7 6 5 4 4 4 4 4 4 4 4 5 5 6 6 6 6 6 7 7 7 8 8 8 8 8
6 6 7 7 7 7 7 7 7 7 8 9 11 11 9 9 8 7 7 6 5 4 4 4 4 4 4 4 4 4 5 5 5 6 6 6 7 7 7 7 7 8 8 8
6 7 7 7 7 6 7 7 7 8 8 8 9 10 8 8 7 7 6 5 4 4 3 3 3 4 4 4 4 4 4 5 5 5 6 6 6 6 7 7 7 7 7 7
6 7 7 8 7 6 6 6 6 6 7 7 9 10 8 7 7 6 6 5 4 3 3 3 3 3 3 3 3 4 4 4 5 5 5 6 6 6 6 6 6 6 7 7
6 6 7 9 8 7 6 6 6 6 7 8 8 9 8 8 7 6 6 5 4 3 3 3 3 3 3 3 3 3 3 4 4 4 5 5 5 5 5 6 6 6 6 6
6 6 6 6 6 6 6 6 6 6 7 7 8 7 8 8 7 6 5 4 4 3 3 2 2 2 2 3 3 3 3 3 3 4 4 4 4 4 5 5 5 5 5 5
5 5 5 6 6 6 6 6 6 6 6 6 7 7 8 7 6 6 5 4 3 3 3 2 2 2 2 2 2 3 3 3 3 3 3 3 3 4 4 4 4 4 5 5
5 5 6 7 6 6 7 8 7 6 6 7 7 8 7 6 6 5 4 4 3 3 2 2 2 2 2 2 2 2 2 2 3 3 3 3 3 3 3 3 3 4 4 4
5 5 5 6 7 7 9 7 7 7 7 7 7 7 7 6 5 4 4 3 3 3 2 2 2 2 2 2 2 2 2 2 2 2 2 2 3 3 3 3 3 3 3 3
4 5 6 6 7 8 8 6 6 6 7 7 7 7 6 4 4 5 4 4 3 3 3 2 2 2 2 2 2 2 2 2 2 2 2 2 2 2 2 2 2 3 3 3
3 4 5 5 7 8 9 6 5 6 8 7 6 6 5 4 7 7 4 4 3 3 3 2 2 2 2 2 2 2 2 2 2 2 2 2 2 2 2 2 2 2 2 2
4 4 4 5 6 8 8 5 5 7 9 6 5 5 4 5 6 5 4 4 4 3 3 3 2 2 2 2 2 2 2 1 1 1 1 1 2 2 1 1 1 1 2 2
5 5 5 5 6 8 6 5 6 8 6 5 4 4 4 4 4 4 4 4 3 3 3 2 2 2 2 2 1 1 1 1 1 1 1 1 1 1 1 1 1 1 1 1
4 6 6 6 8 7 4 5 5 5 5 4 4 4 4 3 3 4 3 3 3 3 2 2 2 2 1 1 1 1 1 1 1 1 1 0 0 0 0 0 0 0 1 1
4 2 4 4 6 5 4 4 5 5 4 5 4 4 4 3 3 3 3 3 3 2 2 2 2 1 1 1 1 1 1 1 0 0 0 -0 -0 -0 -0 -0 -0 -0 -0 -0
5 3 3 4 5 5 5 5 5 5 5 5 4 4 4 4 3 3 3 3 2 2 2 2 1 1 1 1 1 1 0 0 -0 -0 -0 -1 -1 -1 -1 -1 -1 -1 -1 -1
3 3 4 6 6 6 6 6 5 4 4 4 4 4 4 4 3 3 3 3 2 2 2 2 1 1 1 1 1 0 -0 -0 -1 -1 -1 -1 -1 -1 -1 -2 -1 -1 -1 -1
Wind_Speed
3 3 3 3 3 2 2 3 5 5 4 5 7 10 10 8 6 6 7 7 7 8 7 7 7 7 6 5 4 4 5 5 4 4 5 6 7 6 6 7 7 10 12 13
3 3 2 2 3 3 3 4 4 4 3 4 7 10 7 4 4 6 7 8 9 9 9 8 8 7 6 5 5 5 5 5 5 5 6 6 6 6 6 5 6 9 11 11
3 1 3 4 4 3 5 5 4 5 7 3 6 5 1 2 3 6 8 8 9 9 9 9 9 7 6 5 5 5 6 6 5 6 5 5 5 5 5 6 6 8 10 11
2 1 3 4 4 4 4 3 4 5 5 2 4 3 2 4 5 7 9 9 9 9 9 9 8 7 6 6 5 5 5 5 5 5 6 7 7 7 7 6 6 7 9 10
2 2 3 3 3 4 2 3 4 4 3 4 2 3 3 3 6 8 9 9 9 9 9 8 8 7 6 6 5 5 5 4 4 4 6 7 7 6 5 6 7 8 8 9
1 1 2 2 2 3 2 2 1 2 2 3 2 3 3 2 6 8 9 9 10 9 9 8 8 7 7 7 6 5 5 5 4 3 4 6 7 7 7 7 7 7 7 7
1 1 0 1 1 2 1 1 1 2 2 2 0 3 3 3 5 6 8 9 9 9 9 9 10 9 8 8 7 6 5 5 5 3 3 4 6 7 8 8 8 8 7 7
1 1 1 0 1 1 1 1 1 2 2 1 2 3 1 3 4 5 6 7 8 9 9 10 10 9 8 8 8 7 6 6 6 4 3 2 3 4 5 6 6 7 7 8
1 1 1 1 1 1 1 1 1 1 1 3 3 3 2 3 4 5 5 6 8 9 9 10 10 9 9 9 9 8 7 7 6 5 4 3 2 3 4 4 5 5 6 6
0 1 0 0 1 1 1 1 1 2 2 2 3 3 2 3 4 4 5 6 8 8 9 10 10 9 9 9 8 8 8 7 6 6 4 3 3 3 4 3 4 5 6 6
0 1 0 1 2 1 2 1 1 1 2 3 3 1 2 1 2 3 4 5 6 8 8 9 9 9 8 9 9 9 8 8 7 5 5 4 4 4 4 4 4 5 5 6
1 1 1 1 0 1 2 2 2 2 2 3 3 2 3 2 2 3 4 5 6 6 7 8 8 9 9 9 9 9 9 8 8 6 6 5 5 4 3 3 4 4 6 6
2 1 1 1 2 2 3 3 3 2 2 3 3 2 2 2 2 3 4 5 5 6 7 7 8 9 9 9 9 9 10 9 8 7 6 6 6 5 4 3 3 3 4 5
1 2 3 3 2 2 4 5 6 5 4 4 6 6 4 4 4 5 5 5 5 5 6 7 8 8 9 9 9 8 9 9 9 8 8 8 7 7 5 4 4 3 3 4
1 2 3 6 6 5 7 9 9 10 8 6 6 6 8 6 5 5 5 5 4 5 6 6 7 7 8 8 8 8 8 9 8 8 8 8 8 7 6 5 5 4 4 3
1 2 2 4 3 5 8 11 11 11 10 10 10 10 7 5 4 4 4 4 4 4 5 6 6 7 7 8 8 8 8 8 8 8 8 8 8 7 7 7 6 6 5 4
2 2 2 3 4 5 7 7 10 7 8 8 9 6 3 3 4 5 5 4 4 4 4 5 5 5 6 6 7 7 7 7 8 8 8 8 7 7 7 6 6 6 5 5
3 2 2 3 4 4 1 1 5 8 8 9 8 6 5 5 5 6 5 4 5 5 5 4 4 5 5 6 6 6 6 6 7 7 8 8 7 7 6 6 6 6 5 5
4 3 2 2 4 6 3 3 4 5 5 7 10 8 5 3 3 4 4 5 5 5 4 4 4 4 5 5 5 5 5 6 7 7 8 8 7 7 7 7 7 6 6 5
2 3 3 3 4 4 0 3 3 3 4 2 5 6 4 2 4 3 2 4 4 4 3 3 3 3 4 4 4 4 5 5 6 7 7 7 7 7 6 7 6 6 5 5
4 4 5 6 6 7 2 3 5 4 1 0 4 5 6 6 5 3 2 4 4 3 3 3 2 3 3 4 3 4 4 5 6 6 7 7 7 7 7 6 6 6 5 5
7 6 6 6 6 6 4 6 6 3 1 2 4 5 7 7 5 3 4 4 4 4 3 3 3 3 3 3 3 3 4 5 6 6 6 7 7 7 6 6 6 6 6 5
8 7 4 7 6 1 5 6 4 2 4 5 5 6 6 7 7 6 6 6 5 5 4 4 4 4 3 3 3 4 4 5 5 5 6 6 7 6 6 6 6 6 5 5
5 5 5 7 10 9 9 10 9 8 8 8 7 7 7 8 8 8 7 6 6 6 5 4 4 4 4 4 3 4 4 4 4 5 5 5 6 6 6 6 5 5 6 5
6 6 6 9 10 9 8 8 8 7 7 8 7 7 9 9 9 8 8 8 7 6 5 5 5 5 5 4 4 3 3 3 4 4 5 5 5 5 6 5 5 6 5 6
9 10 9 10 8 8 8 7 7 8 9 9 8 8 8 9 10 9 9 8 7 7 6 6 6 6 5 5 4 3 3 3 3 4 4 4 4 5 5 5 5 5 5 8
Wind_Direction
162 187 198 206 220 263 246 260 283 295 304 297 287 294 305 320 327 331 329 328 327 325 323 326 327 327 323 313 297 280 274 260 243 225 214 207 209 210 215 215 212 210 205 203
165 203 215 189 185 212 228 258 282 301 312 296 298 295 301 327 336 338 336 337 337 334 334 331 329 329 326 325 313 289 271 261 243 228 221 215 213 211 213 213 213 211 207 204
179 155 174 179 188 222 241 245 276 299 312 277 302 286 277 355 354 355 349 341 339 339 336 333 335 333 326 329 320 305 288 268 253 236 221 215 211 210 215 214 213 211 208 206
175 172 174 193 215 230 254 249 265 283 299 305 321 297 298 342 346 356 352 348 346 343 339 337 336 337 337 334 329 318 307 284 265 243 219 214 212 213 217 217 215 212 209 210
173 172 181 212 236 230 249 295 271 269 271 281 271 269 294 350 334 340 344 346 347 343 342 340 339 340 341 340 339 334 323 319 296 261 227 219 220 222 218 220 217 212 210 214
167 211 239 248 268 219 232 264 233 220 239 261 260 253 297 349 326 328 334 342 345 344 346 347 350 352 355 357 353 348 348 340 322 293 249 224 218 218 217 222 222 213 213 217
111 151 193 230 179 157 224 256 223 211 226 259 157 251 276 349 341 325 327 337 342 347 351 353 356 359 1 359 357 355 353 346 337 326 292 243 226 222 223 227 227 216 214 219
161 173 162 268 272 224 225 276 310 292 286 302 229 253 292 8 339 330 331 340 348 354 356 356 358 358 358 358 358 359 356 351 343 334 315 290 253 236 233 232 235 225 221 224
181 151 76 357 326 218 184 194 342 292 284 269 257 265 269 1 344 341 341 349 355 357 357 356 356 358 357 357 358 359 356 349 344 337 323 313 290 264 250 244 239 234 230 230
290 198 230 282 171 81 1 146 201 240 280 286 280 263 294 326 338 348 347 348 351 354 356 355 354 355 356 355 356 1 359 349 341 338 336 321 303 283 271 259 250 249 242 236
246 191 195 200 210 200 155 169 216 239 282 282 290 304 41 304 327 337 342 347 350 353 354 354 355 354 352 352 357 0 357 354 351 343 337 336 324 301 284 266 252 251 251 247
184 214 236 244 346 308 241 228 215 254 250 255 272 288 64 330 336 338 337 342 349 353 355 357 358 357 359 357 354 354 352 354 352 350 350 348 338 325 304 301 281 263 255 249
174 197 243 178 187 195 228 224 223 240 241 233 245 252 74 356 330 330 331 338 345 351 354 356 358 359 358 356 355 357 356 356 354 357 1 1 354 350 335 315 301 287 269 257
187 228 244 263 304 233 242 229 214 209 225 238 243 269 291 305 306 314 321 327 335 346 352 352 351 352 352 352 353 357 357 358 357 1 6 4 358 355 347 337 326 306 290 275
226 242 250 272 278 259 253 244 224 221 233 242 259 265 278 288 290 294 305 317 326 336 342 344 343 344 345 347 350 355 357 357 357 2 5 359 356 359 1 360 353 349 339 310
264 240 270 277 265 266 262 251 234 233 237 245 262 271 275 279 280 286 294 302 307 316 327 333 334 336 338 342 344 349 354 354 357 2 0 356 357 2 4 2 360 358 350 348
211 216 261 269 298 286 261 240 215 215 218 221 238 252 254 261 262 272 278 283 286 295 305 313 318 324 329 334 338 342 345 349 358 1 360 358 358 2 360 359 358 354 347 348
203 212 251 289 301 250 257 114 206 219 237 228 244 257 253 261 271 266 257 261 276 286 292 298 308 315 322 329 334 338 345 352 357 358 359 359 358 358 357 359 356 350 346 347
220 220 235 257 276 275 270 200 189 214 257 232 236 250 255 277 277 250 228 244 265 273 278 286 294 305 318 326 331 339 346 351 355 355 354 353 354 354 354 353 349 347 346 344
183 224 236 232 254 255 255 150 170 206 256 222 222 232 224 213 261 269 215 245 262 271 277 285 293 304 313 322 330 338 343 347 347 344 343 345 347 349 348 343 340 339 338 332
184 200 220 231 248 266 258 161 168 213 306 68 220 224 211 221 258 304 232 234 243 252 266 273 278 288 302 316 325 332 335 337 335 336 340 345 346 344 341 338 338 337 335 331
203 200 207 204 225 252 156 159 201 259 350 265 252 240 233 243 262 261 241 232 232 242 253 258 264 275 291 302 308 313 320 326 332 338 344 346 346 347 342 341 340 338 335 332
220 219 220 216 234 306 181 212 243 265 270 269 262 262 248 248 249 250 245 238 236 238 243 247 252 264 276 283 289 297 311 325 331 339 342 341 343 345 345 343 342 342 340 336
231 217 233 256 259 258 251 252 255 251 255 265 264 257 244 247 248 247 245 239 238 239 241 242 245 254 264 272 279 293 312 323 327 331 332 335 338 340 343 343 340 339 337 332
238 191 224 252 267 278 263 241 246 254 261 265 263 255 249 249 249 245 243 239 238 239 239 237 240 249 258 263 269 287 305 312 316 321 324 327 332 333 335 334 332 331 334 333
219 214 224 247 251 252 270 271 265 262 262 260 260 262 255 246 247 244 242 238 235 234 234 236 242 248 254 256 261 272 285 290 300 308 314 320 323 326 326 324 323 324 322 332
Height
1505 1504 1501 1502 1503 1503 1502 1501 1499 1498 1500 1499 1494 1490 1487 1487 1486 1483 1481 1478 1475 1472 1469 1467 1465 1463 1461 1460 1459 1460 1460 1461 1462 1464 1466 1468 1470 1473 1477 1479 1482 1485 1488 1492
1503 1502 1503 1504 1505 1505 1504 1502 1499 1498 1499 1497 1492 1487 1485 1485 1485 1483 1480 1476 1473 1470 1467 1464 1462 1460 1459 1457 1457 1457 1457 1458 1459 1460 1462 1464 1466 1469 1472 1474 1477 1480 1483 1487
1500 1503 1503 1504 1504 1504 1502 1500 1498 1498 1497 1495 1492 1482 1481 1482 1483 1481 1479 1476 1473 1469 1466 1463 1460 1458 1456 1455 1454 1454 1454 1455 1455 1457 1458 1460 1463 1465 1467 1470 1473 1475 1478 1481
1502 1503 1503 1502 1502 1502 1499 1499 1499 1499 1496 1491 1493 1482 1477 1479 1480 1479 1477 1475 1472 1469 1466 1462 1459 1457 1455 1453 1452 1451 1451 1451 1452 1453 1454 1456 1457 1459 1462 1465 1468 1471 1473 1476
1501 1502 1502 1501 1501 1502 1499 1500 1500 1499 1497 1494 1489 1487 1475 1479 1478 1478 1477 1475 1472 1469 1465 1462 1459 1456 1453 1452 1450 1449 1448 1448 1448 1449 1450 1452 1453 1456 1459 1461 1463 1466 1469 1471
1502 1503 1503 1501 1502 1502 1501 1501 1499 1498 1495 1490 1487 1486 1475 1477 1479 1478 1477 1474 1472 1468 1465 1461 1458 1455 1452 1450 1448 1447 1446 1445 1445 1445 1446 1448 1449 1452 1454 1457 1458 1460 1463 1466
1500 1502 1503 1503 1501 1501 1501 1498 1492 1488 1485 1480 1487 1485 1477 1478 1480 1480 1477 1474 1471 1468 1464 1461 1457 1454 1452 1450 1448 1446 1444 1443 1442 1442 1443 1443 1445 1448 1450 1452 1453 1455 1457 1460
1499 1499 1502 1502 1501 1499 1499 1498 1492 1485 1478 1476 1485 1480 1475 1480 1481 1480 1478 1475 1471 1468 1464 1461 1458 1455 1452 1449 1447 1445 1443 1441 1440 1440 1440 1440 1442 1443 1445 1447 1448 1450 1452 1455
1498 1499 1503 1503 1502 1501 1498 1497 1499 1496 1494 1486 1474 1475 1474 1479 1479 1478 1477 1474 1472 1468 1465 1461 1458 1455 1452 1449 1446 1443 1441 1440 1438 1437 1437 1437 1438 1439 1441 1442 1444 1446 1448 1450
1502 1502 1502 1503 1503 1503 1501 1500 1499 1496 1488 1476 1470 1470 1470 1476 1477 1477 1476 1474 1472 1469 1466 1462 1458 1455 1452 1449 1446 1443 1441 1439 1438 1436 1435 1435 1435 1436 1437 1437 1439 1441 1443 1445
1504 1503 1502 1501 1499 1498 1501 1501 1499 1496 1493 1482 1472 1469 1474 1476 1477 1477 1476 1475 1473 1470 1467 1463 1459 1455 1452 1449 1446 1443 1441 1438 1437 1435 1434 1433 1433 1433 1433 1433 1435 1436 1438 1440
1504 1502 1499 1500 1502 1502 1500 1498 1498 1494 1492 1491 1480 1476 1477 1477 1478 1478 1477 1476 1474 1471 1467 1464 1460 1456 1452 1449 1446 1443 1440 1438 1436 1434 1433 1432 1431 1430 1429 1430 1431 1433 1434 1435
1504 1502 1497 1494 1501 1503 1500 1499 1499 1499 1496 1490 1482 1475 1479 1478 1478 1478 1477 1475 1473 1471 1468 1464 1461 1457 1453 1450 1447 1443 1440 1437 1435 1433 1432 1430 1428 1427 1427 1428 1428 1429 1430 1430
1504 1501 1498 1491 1488 1494 1496 1496 1498 1498 1492 1486 1481 1475 1476 1477 1477 1477 1476 1475 1473 1471 1468 1465 1462 1458 1454 1451 1447 1444 1441 1437 1435 1432 1430 1428 1427 1426 1425 1425 1425 1425 1426 1426
1503 1500 1499 1497 1496 1496 1494 1492 1493 1494 1488 1485 1478 1478 1474 1476 1477 1476 1476 1474 1473 1471 1468 1466 1463 1459 1455 1452 1448 1445 1441 1438 1435 1432 1430 1428 1426 1424 1423 1422 1422 1422 1422 1422
1503 1502 1500 1496 1495 1494 1492 1487 1487 1488 1487 1484 1481 1477 1474 1475 1476 1475 1474 1473 1471 1470 1468 1465 1463 1460 1456 1452 1449 1446 1442 1439 1436 1433 1430 1428 1425 1423 1422 1421 1420 1420 1420 1419
1503 1502 1498 1489 1492 1491 1481 1476 1479 1480 1479 1479 1476 1472 1473 1474 1474 1474 1473 1471 1470 1469 1467 1464 1462 1459 1456 1453 1450 1446 1443 1440 1437 1434 1431 1428 1425 1423 1422 1421 1420 1419 1418 1417
1502 1501 1498 1492 1489 1483 1471 1476 1475 1476 1474 1474 1473 1471 1472 1472 1472 1471 1470 1469 1468 1467 1465 1463 1460 1458 1455 1452 1449 1447 1444 1441 1438 1435 1432 1429 1427 1424 1423 1421 1420 1419 1417 1416
1502 1500 1496 1493 1484 1474 1471 1474 1475 1474 1470 1469 1470 1470 1471 1471 1470 1468 1467 1467 1466 1465 1463 1461 1459 1457 1454 1452 1449 1446 1444 1441 1438 1435 1432 1430 1427 1425 1423 1421 1420 1418 1416 1415
1502 1501 1497 1494 1486 1473 1466 1472 1474 1475 1467 1466 1467 1467 1469 1469 1466 1464 1464 1464 1463 1462 1461 1459 1457 1455 1453 1450 1448 1445 1443 1440 1438 1435 1432 1430 1427 1425 1423 1421 1419 1417 1415 1414
1498 1498 1496 1491 1484 1468 1468 1472 1474 1470 1463 1465 1465 1465 1466 1466 1464 1463 1462 1461 1461 1460 1458 1457 1455 1453 1451 1449 1447 1444 1442 1439 1437 1435 1432 1430 1427 1424 1422 1420 1418 1416 1414 1412
1487 1487 1488 1485 1482 1470 1468 1470 1469 1464 1464 1463 1463 1463 1463 1462 1461 1460 1459 1458 1458 1457 1455 1454 1452 1451 1449 1447 1445 1442 1440 1438 1436 1433 1431 1428 1425 1423 1420 1418 1416 1414 1412 1410
1484 1479 1475 1474 1468 1465 1466 1464 1464 1463 1463 1461 1461 1460 1460 1459 1458 1457 1456 1455 1454 1454 1453 1451 1450 1448 1446 1444 1442 1440 1438 1436 1434 1432 1429 1427 1424 1421 1419 1416 1413 1411 1409 1407
1479 1480 1478 1472 1463 1462 1462 1461 1460 1460 1459 1458 1458 1457 1456 1455 1454 1453 1453 1452 1451 1450 1449 1448 1447 1445 1443 1442 1440 1438 1437 1435 1432 1430 1427 1425 1422 1420 1417 1414 1412 1409 1407 1405
1471 1475 1473 1466 1460 1459 1456 1456 1456 1456 1455 1454 1453 1453 1452 1451 1450 1449 1448 1448 1447 1447 1446 1445 1444 1442 1441 1439 1437 1436 1435 1433 1431 1428 1426 1423 1421 1418 1416 1413 1411 1408 1406 1403
1465 1465 1463 1455 1454 1455 1452 1452 1452 1451 1450 1450 1449 1447 1447 1446 1445 1444 1444 1444 1443 1443 1442 1441 1440 1439 1437 1436 1434 1433 1432 1430 1428 1426 1424 1421 1419 1416 1414 1411 1409 1406 1404 1401